Weather in Domazlice

Czech Republic     49°26′29″N   12°55′38″E
temp.,
°C
wind,
m/s
gust,
m/s
humid.,
%
clouds,
%
prec.,
mm/h
press.,
hPa
HPBL,
m
18 may, tue
tue1823:00+8wsw6139183 0.3 1010818
02:00+8wsw71288100 0.4 1011908
05:00+8w71187100 0.1 10121020
08:00+8wsw51095100 0.7 1014785
11:00+8wsw6109299 0.4 1015812
14:00+11wsw578396 0.8 10141097
17:00+11w577798 0.8 10131061
20:00+8wsw5991100 1.9 1014369
19 may, wed
wed1923:00+6sw389699 0.2 1017198
02:00+4sw369774 0.2 1018134
05:00+6sw31095100 1.5 1016529
08:00+7w5889100 1.7 1018887
11:00+8w488879 0.1 1018724
14:00+12nw576541 1.1 10161549
17:00+12w567034 0.9 10161157
20:00+9wnw378577 2.3 1017117
20 may, thu
thu2023:00+5wsw229436 1.6 101923
02:00+4sw339681 2.2 101949
05:00+3sw3698100 0.0 1020120
08:00+7w4691100 0.0 1021464
11:00+10w4580100 0.4 10221057
14:00+10w4686100 1.3 1022702
17:00+11wnw578393 1.4 1022784
20:00+9w47875 2.7 1023147
21 may, fri
fri2123:00+6sw33915 0.1 102530
02:00+4sw33945 0.1 102539
05:00+3sw339531 0.0 102434
08:00+8sw23889 0.0 1023199
11:00+13ssw246199 0.0 10201026
14:00+16sw4549100 0.0 10171559
17:00+16sw4656100 0.0 10151309
20:00+12s2273100 0.0 101418
22 may, sat
sat2223:00+8s228443 0.0 101312
02:00+8s2276100 0.0 101215
05:00+8ssw3386100 0.0 101142
08:00+11wsw3991100 0.3 1012557
11:00+9sw61193100 1.3 1014674
14:00+10sw61092100 2.7 1015765
17:00+8sw61290100 1.0 1016604
20:00+9ssw5108499 1.1 1016377